STARLINK-2232 (48578 NORAD) Tracking and Keplerian Element Data

This shows tracking and keplerian element data for the satellite.

Feedback or suggestion? Click here.




ElementValue
Catalog48578
NameSTARLINK-2232
Epoch Orbit2338
Epoch Day287.32070669
Epoch Year2021
RAAN147.3647
Inclination53.0555
Eccentricity0.0001797
Argument of Perigee67.4226
Mean Anonmoly292.6953
Mean Motion15.06386883
Decay Rate-1.472E-05
L11 48578U 21041AB 21287.32070669 -.00001472 00000-0 -79937-4 0 9998
L22 48578 53.0555 147.3647 0001797 67.4226 292.6953 15.06386883 23380

Live tracking and technical data element details for STARLINK-2232 (NORAD 48578). STARLINK-2232 can be tracked NOW for your location showing map with azimuth and elevation plus other details from your city location.

Track the satellite on the map from your city or location and see movement details for azimuth, elevation, latitude, longitude, range, height, and movement on the map or in text.







IsCatalogInMostPopularTable: catalog: 48578, numindb: 37
Update: records affected: 1



GetName: 48578 STARLINK-2232

Hit Count: updated at: Tue, 19 Oct 2021 08:30:45 GMT